sat.trackr.live / text

‹ back to catalog

ONEWEB-0307

NORAD 49189 · 2021-083D

PAYLOAD ACTIVE UNKNOWN

§ Identity

Operator
Country
UK
Launch date
2021-09-14
Launch site
TYMSC
Launch vehicle
Mass (kg)
RCS (m²)

Purposes: comms

External: N2YO · Heavens-Above · Gunter

§ Orbital elements

Epoch: 2026-09-09T15:22:25.401792Z

Period
109.63 min
Inclination
87.8927°
Eccentricity
0.0001905
Mean motion
13.13471742 rev/d
Perigee alt
1,208.3 km
Apogee alt
1,211.2 km
Semi-major
7,587.9 km
B*
-5.9653e-4
RAAN
303.4332°
Arg perigee
100.0316°
Mean anomaly
260.1028°
Rev number
24,201

§ Raw data

ONEWEB-03071 49189U 21083D   26252.64057178 -.00000205  00000+0 -59653-3 0  99992 49189  87.8927 303.4332 0001905 100.0316 260.1028 13.13471742242019

JSON: /api/v1/satellites/49189 · /tle

For live sub-satellite position, see the globe view (requires WebGL).

§ Visibility from observer

Set your observer location to see the next 7 days of passes ≥ 10°. The values pass through the URL so the page stays shareable.

No JS? Fill the form by hand. The geolocation button needs JavaScript.